EW5171 Weather Reports


time (UTC)temp
C
wind
direction
speed
KPH
gust
KPH
rain 1hr
cm
rain 24hr
cm
rain mn
cm
humidity
%
barometer
mb
20260905144524 17 280 6.4 25.7 0.00 0.05 0.03 69 1008.0
20260905144018 17 220 6.4 27.4 0.00 0.05 0.03 70 1008.0
20260905143516 17 182 6.4 27.4 0.00 0.05 0.03 69 1008.0
20260905143013 17 217 8.0 32.2 0.00 0.05 0.03 69 1008.0
20260905142514 17 273 9.7 32.2 0.00 0.05 0.03 70 1008.2
20260905142012 17 209 6.4 32.2 0.00 0.05 0.03 70 1008.1
20260905141514 17 297 9.7 32.2 0.00 0.05 0.03 69 1008.0
20260905141011 17 195 8.0 27.4 0.00 0.05 0.03 66 1007.9
20260905140512 18 170 3.2 19.3 0.00 0.05 0.03 67 1007.7
20260905140018 18 105 4.8 19.3 0.00 0.05 0.03 66 1007.7
20260905135509 18 279 9.7 20.9 0.00 0.05 0.03 65 1007.6
20260905135009 18 227 9.7 22.5 0.00 0.05 0.03 65 1007.6
20260905134508 18 329 4.8 27.4 0.00 0.05 0.03 67 1007.5
20260905134008 18 232 6.4 27.4 0.00 0.05 0.03 64 1007.5
20260905133507 18 277 8.0 32.2 0.00 0.05 0.03 65 1007.6
20260905133008 18 301 8.0 32.2 0.00 0.05 0.03 65 1007.3
20260905132504 18 273 9.7 25.7 0.00 0.05 0.03 66 1007.2
20260905132003 18 194 11.3 25.7 0.00 0.05 0.03 66 1007.3
20260905131502 18 180 9.7 25.7 0.00 0.05 0.03 68 1007.3
20260905131002 18 273 9.7 20.9 0.03 0.05 0.03 67 1007.3
20260905130503 18 334 4.8 25.7 0.03 0.05 0.03 69 1007.2
20260905130101 17 300 6.4 25.7 0.03 0.05 0.03 71 1007.2
20260905125602 17 256 3.2 20.9 0.03 0.05 0.03 71 1007.1
20260905125100 17 309 8.0 20.9 0.03 0.05 0.03 72 1007.2
20260905124600 17 289 4.8 24.1 0.03 0.05 0.03 76 1007.1
20260905124058 16 188 3.2 24.1 0.03 0.05 0.03 77 1007.1
20260905123558 16 298 8.0 24.1 0.03 0.05 0.03 78 1007.2
20260905123104 16 292 8.0 24.1 0.03 0.05 0.03 81 1007.3
20260905122557 16 308 4.8 19.3 0.03 0.05 0.03 83 1007.2
20260905122100 16 176 6.4 25.7 0.03 0.05 0.03 79 1007.2
20260905121600 17 227 8.0 25.7 0.03 0.05 0.03 73 1007.2
20260905121100 18 297 6.4 29.0 0.03 0.05 0.03 70 1007.1
20260905120555 17 209 4.8 24.1 0.00 0.05 0.00 71 1006.9
20260905120106 17 190 6.4 24.1 0.00 0.05 0.00 70 1006.8
20260905115554 17 258 4.8 27.4 0.00 0.05 0.00 71 1006.7
20260905115157 17 229 6.4 27.4 0.00 0.05 0.00 71 1006.6
20260905114607 17 293 8.0 25.7 0.00 0.05 0.00 73 1006.6
20260905114054 17 270 8.0 25.7 0.00 0.05 0.00 71 1006.7
20260905113553 17 290 6.4 19.3 0.00 0.05 0.00 72 1006.6
20260905113057 17 305 4.8 24.1 0.00 0.05 0.00 72 1006.6
20260905112550 17 264 6.4 19.3 0.00 0.05 0.00 73 1006.7
20260905112049 17 288 6.4 25.7 0.00 0.05 0.00 75 1006.5
20260905111634 16 227 4.8 25.7 0.00 0.05 0.00 77 1006.6
20260905111047 16 41 8.0 27.4 0.00 0.05 0.00 79 1006.5
20260905110545 16 161 8.0 27.4 0.00 0.05 0.00 79 1006.5
20260905110045 16 140 8.0 19.3 0.00 0.05 0.00 78 1006.4
20260905105546 16 234 6.4 19.3 0.00 0.05 0.00 78 1006.4
20260905105045 16 195 6.4 16.1 0.00 0.05 0.00 78 1006.4
20260905104544 16 198 4.8 16.1 0.00 0.05 0.00 76 1006.2
20260905104043 16 257 4.8 14.5 0.00 0.05 0.00 77 1006.2
20260905103544 16 251 3.2 25.7 0.00 0.05 0.00 77 1006.2
20260905103043 16 141 6.4 25.7 0.00 0.05 0.00 77 1006.2
20260905102547 16 200 8.0 20.9 0.00 0.05 0.00 76 1006.1
20260905102142 16 98 4.8 20.9 0.00 0.05 0.00 76 1006.1
20260905101543 16 61 6.4 20.9 0.00 0.05 0.00 76 1006.1
20260905101040 16 135 6.4 19.3 0.00 0.05 0.00 77 1006.0
20260905100540 16 196 6.4 24.1 0.00 0.05 0.00 77 1006.0
20260905100040 16 179 9.7 24.1 0.00 0.05 0.00 78 1005.9
20260905095539 16 57 6.4 22.5 0.00 0.05 0.00 78 1006.0
20260905095038 16 285 6.4 19.3 0.00 0.05 0.00 78 1005.9
20260905094539 16 294 6.4 24.1 0.00 0.05 0.00 77 1005.9
20260905094040 16 220 8.0 24.1 0.00 0.05 0.00 76 1005.8
20260905093537 16 257 4.8 17.7 0.00 0.05 0.00 78 1005.8
20260905093041 16 273 6.4 20.9 0.00 0.05 0.00 77 1005.7
20260905092534 16 237 8.0 20.9 0.00 0.05 0.00 78 1005.8
20260905092034 16 173 3.2 20.9 0.00 0.05 0.00 78 1005.8
20260905091534 16 250 6.4 19.3 0.00 0.05 0.00 80 1005.7
20260905091032 16 341 4.8 17.7 0.00 0.05 0.00 81 1005.7
20260905090531 16 338 6.4 17.7 0.00 0.05 0.00 81 1005.8
20260905090030 15 294 4.8 17.7 0.00 0.05 0.00 82 1005.7
20260905085530 15 290 6.4 17.7 0.00 0.05 0.00 80 1005.7
20260905085028 15 298 4.8 16.1 0.00 0.05 0.00 82 1005.6
20260905084527 15 268 3.2 32.2 0.00 0.05 0.00 85 1005.5
20260905084026 15 9 4.8 32.2 0.00 0.05 0.00 85 1005.6
20260905083529 15 257 6.4 17.7 0.00 0.05 0.00 85 1005.5
20260905083024 15 261 3.2 11.3 0.00 0.05 0.00 85 1005.5
20260905082523 15 251 3.2 11.3 0.00 0.05 0.00 85 1005.4
20260905082023 15 178 4.8 16.1 0.00 0.05 0.00 86 1005.4
20260905081522 15 208 4.8 17.7 0.00 0.05 0.00 86 1005.4
20260905081021 15 182 6.4 17.7 0.00 0.05 0.00 86 1005.3
20260905080521 15 301 3.2 16.1 0.00 0.05 0.00 87 1005.2
20260905080028 14 273 4.8 20.9 0.00 0.05 0.00 87 1005.2
20260905075518 14 223 4.8 17.7 0.00 0.05 0.00 88 1005.2
20260905075018 14 293 4.8 17.7 0.00 0.05 0.00 88 1005.1
20260905074516 14 214 4.8 17.7 0.00 0.05 0.00 88 1005.1
20260905074014 14 270 4.8 17.7 0.00 0.05 0.00 89 1005.0
20260905073514 14 306 3.2 16.1 0.00 0.05 0.00 90 1004.9
20260905073013 13 313 4.8 14.5 0.00 0.05 0.00 90 1004.9
20260905072511 13 245 4.8 16.1 0.00 0.05 0.00 90 1004.9
20260905072010 13 290 1.6 16.1 0.00 0.05 0.00 91 1004.9
20260905071509 13 266 4.8 16.1 0.00 0.05 0.00 92 1004.9
20260905071011 13 287 3.2 16.1 0.00 0.05 0.00 92 1005.0
20260905070508 13 285 4.8 16.1 0.00 0.05 0.00 92 1004.8
20260905070019 13 39 1.6 12.9 0.00 0.05 0.00 92 1004.9
20260905065508 13 331 4.8 12.9 0.00 0.05 0.00 92 1004.8
20260905065010 13 166 1.6 12.9 0.00 0.05 0.00 92 1004.8
20260905064520 13 184 3.2 12.9 0.00 0.05 0.00 93 1004.8
20260905064005 13 266 3.2 17.7 0.00 0.05 0.00 93 1004.7
20260905063504 13 268 4.8 17.7 0.00 0.05 0.00 94 1004.7
20260905063004 12 215 1.6 12.9 0.00 0.05 0.00 94 1004.7
20260905062504 12 276 4.8 12.9 0.00 0.05 0.00 94 1004.7
20260905062000 12 281 3.2 12.9 0.00 0.05 0.00 95 1004.6
20260905061601 12 228 3.2 11.3 0.00 0.05 0.00 95 1004.7
20260905061058 12 257 3.2 11.3 0.00 0.05 0.00 95 1004.6
20260905060557 12 204 3.2 9.7 0.00 0.05 0.00 96 1004.6
20260905060058 12 194 3.2 8.0 0.00 0.05 0.00 95 1004.5
20260905055558 12 9 1.6 11.3 0.00 0.05 0.00 96 1004.5
20260905055057 11 336 1.6 11.3 0.00 0.05 0.00 95 1004.5
20260905054556 11 311 1.6 9.7 0.00 0.05 0.00 95 1004.4
20260905054056 11 281 1.6 11.3 0.00 0.05 0.00 95 1004.5
20260905053553 11 187 1.6 8.0 0.00 0.05 0.00 96 1004.4
20260905053053 11 254 3.2 8.0 0.00 0.05 0.00 96 1004.3
20260905052551 11 263 3.2 11.3 0.00 0.05 0.00 96 1004.3
20260905052051 11 140 3.2 16.1 0.00 0.05 0.00 96 1004.3
20260905051550 11 273 4.8 16.1 0.00 0.05 0.00 96 1004.2
20260905051049 11 311 4.8 12.9 0.00 0.05 0.00 96 1004.1
20260905050548 11 183 1.6 9.7 0.00 0.05 0.00 96 1004.1
20260905050054 11 299 3.2 9.7 0.00 0.05 0.00 96 1004.0
20260905045545 11 226 1.6 11.3 0.00 0.05 0.00 96 1004.1
20260905045045 11 275 1.6 11.3 0.00 0.05 0.00 96 1004.0
20260905044544 11 193 1.6 6.4 0.00 0.05 0.00 96 1003.9
20260905044045 11 212 1.6 6.4 0.00 0.05 0.00 96 1003.9
20260905043546 11 240 1.6 11.3 0.00 0.05 0.00 96 1003.8
20260905043041 11 305 3.2 11.3 0.00 0.05 0.00 96 1003.7
20260905042539 11 292 1.6 6.4 0.00 0.05 0.00 96 1003.7
20260905042039 11 327 1.6 9.7 0.00 0.05 0.00 96 1003.7
20260905041539 11 273 3.2 9.7 0.00 0.05 0.00 95 1003.6
20260905041038 11 263 1.6 11.3 0.00 0.05 0.00 96 1003.6
20260905040539 11 288 3.2 17.7 0.00 0.05 0.00 95 1003.6
20260905040038 11 171 4.8 17.7 0.00 0.05 0.00 95 1003.5
20260905035536 11 269 3.2 9.7 0.00 0.05 0.00 95 1003.5
20260905035036 11 213 1.6 6.4 0.00 0.05 0.00 95 1003.5
20260905034537 11 257 3.2 6.4 0.00 0.05 0.00 95 1003.4
20260905034039 11 303 1.6 8.0 0.00 0.05 0.00 95 1003.4
20260905033534 11 18 1.6 11.3 0.00 0.05 0.00 95 1003.3
20260905033034 11 209 1.6 11.3 0.00 0.05 0.00 95 1003.3
20260905032533 11 309 1.6 11.3 0.00 0.05 0.00 95 1003.2
20260905032032 11 248 1.6 11.3 0.00 0.05 0.00 95 1003.2
20260905031535 11 262 3.2 11.3 0.00 0.05 0.00 95 1003.1
20260905031031 11 219 1.6 11.3 0.00 0.05 0.00 95 1003.1
20260905030531 11 272 1.6 11.3 0.00 0.05 0.00 95 1003.0
20260905030031 11 117 1.6 11.3 0.00 0.05 0.00 95 1002.9
20260905025530 12 268 1.6 11.3 0.00 0.05 0.00 95 1003.0
20260905025032 12 277 3.2 19.3 0.00 0.05 0.00 95 1002.9
20260905024530 11 286 3.2 19.3 0.00 0.05 0.00 95 1002.9
20260905024029 11 256 1.6 14.5 0.00 0.05 0.00 95 1002.9
20260905023529 11 263 3.2 14.5 0.00 0.05 0.00 95 1003.0
20260905023027 11 215 1.6 12.9 0.00 0.05 0.00 95 1002.9
20260905022526 11 328 3.2 12.9 0.00 0.05 0.00 95 1002.8
20260905022026 11 338 1.6 9.7 0.00 0.05 0.00 95 1002.7
20260905021536 11 226 3.2 8.0 0.00 0.05 0.00 95 1002.6
20260905021024 11 327 1.6 8.0 0.00 0.05 0.00 95 1002.6
20260905020524 11 307 3.2 9.7 0.00 0.05 0.00 95 1002.6
20260905020027 11 188 1.6 12.9 0.00 0.05 0.00 95 1002.5
20260905015523 11 272 3.2 12.9 0.00 0.05 0.00 95 1002.5
20260905015023 11 192 1.6 11.3 0.00 0.05 0.00 95 1002.5
20260905014521 11 159 1.6 16.1 0.00 0.05 0.00 95 1002.4
20260905014021 12 298 3.2 16.1 0.00 0.05 0.00 95 1002.4
20260905013524 12 198 3.2 16.1 0.00 0.05 0.00 96 1002.3
20260905013024 12 238 6.4 16.1 0.00 0.05 0.00 95 1002.3
20260905012520 12 131 3.2 9.7 0.00 0.05 0.00 96 1002.2
20260905012019 12 194 1.6 12.9 0.00 0.05 0.00 96 1002.2
20260905011519 12 284 4.8 12.9 0.00 0.05 0.00 96 1002.2
20260905011019 12 275 1.6 12.9 0.00 0.05 0.00 96 1002.2
20260905010518 12 192 3.2 12.9 0.00 0.05 0.00 96 1002.1
20260905010023 12 277 3.2 14.5 0.00 0.05 0.00 96 1002.2
20260905005516 12 172 1.6 14.5 0.00 0.05 0.00 96 1002.1
20260905005017 12 286 1.6 11.3 0.00 0.05 0.00 96 1002.1
20260905004515 12 296 1.6 16.1 0.00 0.05 0.00 96 1002.0
20260905004015 12 190 4.8 16.1 0.00 0.05 0.00 96 1001.9
20260905003517 12 258 3.2 12.9 0.00 0.05 0.00 96 1001.9
20260905003015 12 305 3.2 11.3 0.00 0.05 0.00 96 1001.9
20260905002512 12 323 3.2 11.3 0.00 0.05 0.00 96 1001.8
20260905002013 12 294 3.2 12.9 0.00 0.05 0.00 96 1001.8
20260905001512 12 300 3.2 12.9 0.00 0.05 0.00 96 1001.7
20260905001011 12 139 1.6 8.0 0.00 0.05 0.00 96 1001.7
20260905000511 12 270 3.2 14.5 0.00 0.05 0.00 96 1001.6
20260905000014 12 286 3.2 14.5 0.00 0.05 0.00 96 1001.6
20260904235510 12 236 3.2 11.3 0.00 0.05 0.00 96 1001.6
20260904235009 12 174 1.6 11.3 0.00 0.05 0.00 96 1001.5
20260904234508 12 136 1.6 8.0 0.00 0.05 0.00 96 1001.5
20260904234009 12 205 0.0 9.7 0.00 0.05 0.00 96 1001.4
20260904233508 12 314 1.6 12.9 0.00 0.05 0.00 96 1001.4
20260904233008 12 225 3.2 12.9 0.00 0.05 0.00 96 1001.3
20260904232506 12 200 1.6 12.9 0.00 0.05 0.00 96 1001.4
20260904232008 12 252 3.2 14.5 0.00 0.05 0.00 96 1001.3
20260904231506 12 320 0.0 8.0 0.00 0.05 0.00 95 1001.3
20260904231005 12 299 1.6 12.9 0.00 0.05 0.00 95 1001.3
20260904230506 12 221 1.6 6.4 0.00 0.05 0.00 95 1001.3
20260904230005 12 299 1.6 6.4 0.00 0.05 0.00 95 1001.3
20260904225503 12 226 0.0 4.8 0.00 0.05 0.00 95 1001.2
20260904225006 12 265 0.0 6.4 0.00 0.05 0.00 95 1001.2
20260904224503 12 257 0.0 8.0 0.00 0.05 0.00 95 1001.2
20260904224003 12 287 1.6 8.0 0.00 0.05 0.00 95 1001.1
20260904223502 12 228 1.6 6.4 0.00 0.05 0.00 95 1001.0
20260904223002 12 197 1.6 4.8 0.00 0.05 0.00 95 1000.9
20260904222503 12 244 0.0 9.7 0.00 0.05 0.00 95 1000.9
20260904222100 12 193 3.2 11.3 0.00 0.05 0.00 95 1001.0
20260904221604 12 284 3.2 6.4 0.00 0.05 0.00 95 1001.0
20260904221100 12 248 1.6 9.7 0.00 0.05 0.00 95 1000.9
20260904220600 12 216 3.2 8.0 0.00 0.05 0.00 95 1001.0
20260904220110 12 243 1.6 11.3 0.00 0.05 0.00 95 1000.9
20260904215600 12 214 3.2 11.3 0.00 0.05 0.05 95 1000.9
20260904215101 12 196 3.2 8.0 0.00 0.05 0.05 95 1000.8
20260904214558 12 252 0.0 14.5 0.00 0.05 0.05 95 1000.9
20260904214058 12 252 3.2 14.5 0.00 0.05 0.05 95 1000.8
20260904213557 12 118 3.2 12.9 0.00 0.05 0.05 95 1000.7
20260904213101 12 238 1.6 9.7 0.00 0.05 0.05 95 1000.6
20260904212556 12 281 3.2 12.9 0.00 0.05 0.05 95 1000.6
20260904212055 12 265 3.2 12.9 0.00 0.05 0.05 95 1000.5
20260904211557 12 190 3.2 12.9 0.00 0.05 0.05 95 1000.4
20260904211054 12 185 1.6 12.9 0.00 0.05 0.05 95 1000.4
20260904210554 12 249 3.2 12.9 0.00 0.05 0.05 95 1000.3
20260904210059 12 198 3.2 16.1 0.00 0.05 0.05 95 1000.3
20260904205553 12 294 4.8 16.1 0.00 0.08 0.05 95 1000.2
20260904205052 12 288 3.2 14.5 0.00 0.08 0.05 95 1000.1
20260904204553 12 244 3.2 11.3 0.00 0.08 0.05 95 1000.1
20260904204051 12 345 4.8 17.7 0.00 0.08 0.05 95 1000.0
20260904203554 12 134 6.4 17.7 0.00 0.08 0.05 95 999.9
20260904203051 12 294 1.6 11.3 0.00 0.08 0.05 95 999.9
20260904202550 12 301 3.2 14.5 0.00 0.08 0.05 95 999.9
20260904202049 12 290 3.2 14.5 0.00 0.08 0.05 95 999.9
20260904201552 12 329 3.2 16.1 0.00 0.08 0.05 95 999.8
20260904201048 12 171 3.2 16.1 0.00 0.08 0.05 95 999.6
20260904200548 12 240 3.2 12.9 0.00 0.08 0.05 95 999.6
20260904200109 12 247 3.2 16.1 0.00 0.08 0.05 95 999.6
20260904195546 13 159 3.2 17.7 0.00 0.08 0.05 95 999.7
20260904195049 13 325 6.4 17.7 0.00 0.08 0.05 95 999.6
20260904194628 13 209 4.8 14.5 0.00 0.08 0.05 95 999.5
20260904194045 13 342 3.2 16.1 0.03 0.08 0.05 95 999.5
20260904193545 13 294 3.2 17.7 0.03 0.08 0.05 95 999.5
20260904193045 13 259 3.2 20.9 0.03 0.08 0.05 95 999.5
20260904192544 13 355 4.8 20.9 0.03 0.08 0.05 95 999.6
20260904192045 13 290 3.2 14.5 0.03 0.08 0.05 95 999.5
20260904191544 13 202 3.2 16.1 0.03 0.08 0.05 95 999.5
20260904191044 13 298 4.8 16.1 0.03 0.08 0.05 96 999.5
20260904190544 13 302 1.6 14.5 0.03 0.08 0.05 96 999.4
20260904190047 13 332 1.6 9.7 0.03 0.08 0.05 96 999.4
20260904185543 13 292 3.2 8.0 0.03 0.08 0.05 95 999.3
20260904185043 13 298 0.0 4.8 0.03 0.08 0.05 95 999.2
20260904184551 13 213 0.0 6.4 0.03 0.08 0.05 95 999.1
20260904184043 13 163 1.6 6.4 0.00 0.05 0.05 95 999.1
20260904183544 13 209 0.0 4.8 0.00 0.05 0.05 95 999.0
20260904183043 13 257 0.0 6.4 0.00 0.05 0.05 95 999.0
20260904182541 13 190 1.6 8.0 0.00 0.05 0.05 95 999.0
20260904182041 13 265 1.6 8.0 0.00 0.05 0.05 94 999.0
20260904181550 14 315 1.6 9.7 0.00 0.05 0.05 94 999.1
20260904181042 14 246 1.6 9.7 0.00 0.05 0.05 94 999.1
20260904180541 14 248 1.6 8.0 0.00 0.05 0.05 94 999.0
20260904180043 14 241 1.6 8.0 0.00 0.05 0.05 94 999.1
20260904175544 14 349 0.0 8.0 0.00 0.05 0.05 93 999.0
20260904175041 14 175 1.6 17.7 0.00 0.05 0.05 93 999.1
20260904174541 15 235 4.8 17.7 0.00 0.05 0.05 92 999.1
20260904174041 15 198 1.6 14.5 0.00 0.05 0.05 92 999.1
20260904173540 15 279 1.6 12.9 0.00 0.05 0.05 91 999.1
20260904173058 15 184 0.0 9.7 0.00 0.05 0.05 90 999.0
20260904172539 15 190 3.2 12.9 0.00 0.05 0.05 90 998.9
20260904172040 15 284 3.2 14.5 0.00 0.05 0.05 89 998.8
20260904171542 15 196 0.0 16.1 0.00 0.05 0.05 88 998.6
20260904171038 15 285 1.6 11.3 0.00 0.05 0.05 88 998.6
20260904170538 15 300 1.6 20.9 0.00 0.05 0.05 88 998.6
20260904170041 16 214 3.2 9.7 0.00 0.05 0.05 88 998.6
20260904165541 16 263 0.0 4.8 0.00 0.05 0.05 88 998.5
20260904165039 16 254 0.0 8.0 0.00 0.05 0.05 88 998.5
20260904164538 16 273 1.6 8.0 0.00 0.05 0.05 88 998.5
20260904164037 16 38 1.6 9.7 0.00 0.05 0.05 89 998.6
20260904163537 16 250 0.0 3.2 0.00 0.05 0.05 89 998.6
20260904163038 17 315 0.0 3.2 0.00 0.05 0.05 89 998.6
20260904162537 16 295 0.0 3.2 0.00 0.05 0.05 89 998.6
20260904162036 16 295 0.0 4.8 0.00 0.05 0.05 88 998.6
20260904161544 16 295 0.0 6.4 0.00 0.05 0.05 88 998.5
20260904161036 16 162 1.6 6.4 0.00 0.05 0.05 88 998.7
20260904160539 16 255 0.0 3.2 0.00 0.05 0.05 88 998.7
20260904160039 16 265 0.0 4.8 0.00 0.05 0.05 88 998.7
20260904155535 16 265 0.0 9.7 0.00 0.05 0.05 87 998.7
20260904155037 16 279 0.0 9.7 0.00 0.05 0.05 87 998.7
20260904154535 16 290 1.6 6.4 0.00 0.05 0.05 87 998.7
20260904154035 17 284 1.6 6.4 0.00 0.05 0.05 88 998.6
20260904153536 17 288 0.0 11.3 0.00 0.05 0.05 88 998.6
20260904153038 17 292 3.2 11.3 0.00 0.05 0.05 87 998.7
20260904152535 17 178 3.2 12.9 0.00 0.05 0.05 88 998.7
20260904152032 17 279 3.2 12.9 0.00 0.05 0.05 88 998.7
20260904151541 17 277 1.6 9.7 0.00 0.05 0.05 90 998.8
20260904151033 16 186 1.6 6.4 0.03 0.05 0.05 89 998.7
20260904150530 16 282 1.6 8.0 0.03 0.05 0.05 91 998.7
20260904150034 16 292 1.6 8.0 0.03 0.05 0.05 91 998.7
20260904145529 16 309 1.6 9.7 0.03 0.05 0.05 91 998.7
20260904145028 16 286 1.6 9.7 0.03 0.05 0.05 92 998.9